KE6LRO Weather Reports


Display with metric or nautical units.
time (UTC)temp
F
wind
direction
speed
MPH
gust
MPH
rain 1hr
in
rain 24hr
in
rain mn
in
humidity
%
barometer
mb
20260508212925 69 353 2.0 2.0 0.00 0.00 0.00 35 1017.3
20260508212422 69 164 5.0 6.0 0.00 0.00 0.00 36 1017.4
20260508211918 69 187 3.0 7.0 0.00 0.00 0.00 35 1017.3
20260508211414 70 230 4.0 8.0 0.00 0.00 0.00 35 1017.4
20260508210911 71 343 1.0 2.0 0.00 0.00 0.00 34 1017.2
20260508210407 71 303 1.0 2.0 0.00 0.00 0.00 36 1017.3
20260508205904 71 344 1.0 5.0 0.00 0.00 0.00 37 1017.3
20260508205401 71 347 1.0 6.0 0.00 0.00 0.00 35 1017.2
20260508204857 70 341 1.0 3.0 0.00 0.00 0.00 35 1017.2
20260508204354 72 318 0.0 3.0 0.00 0.00 0.00 35 1017.4
20260508203850 71 318 2.0 3.0 0.00 0.00 0.00 35 1017.6
20260508203347 69 225 5.0 6.0 0.00 0.00 0.00 37 1017.6
20260508202843 69 192 2.0 5.0 0.00 0.00 0.00 36 1017.3
20260508202340 70 297 3.0 3.0 0.00 0.00 0.00 36 1017.4
20260508201837 70 338 0.0 1.0 0.00 0.00 0.00 35 1017.3
20260508201334 71 332 1.0 3.0 0.00 0.00 0.00 35 1017.4
20260508200830 71 349 0.0 2.0 0.00 0.00 0.00 36 1017.6
20260508200327 69 9 2.0 7.0 0.00 0.00 0.00 36 1017.6
20260508195823 70 347 4.0 9.0 0.00 0.00 0.00 36 1017.5
20260508195320 69 321 1.0 6.0 0.00 0.00 0.00 36 1017.5
20260508194816 69 4 0.0 5.0 0.00 0.00 0.00 37 1017.5
20260508194313 69 345 4.0 10.0 0.00 0.00 0.00 35 1017.7
20260508193810 68 311 1.0 2.0 0.00 0.00 0.00 36 1017.6
20260508193307 68 338 4.0 6.0 0.00 0.00 0.00 37 1017.6
20260508192803 68 0 1.0 2.0 0.00 0.00 0.00 37 1017.7
20260508192300 69 320 3.0 5.0 0.00 0.00 0.00 35 1017.5
20260508191757 68 341 0.0 0.0 0.00 0.00 0.00 38 1017.5
20260508191254 68 30 0.0 6.0 0.00 0.00 0.00 36 1017.7
20260508190752 68 334 4.0 5.0 0.00 0.00 0.00 36 1017.6
20260508190247 68 332 0.0 5.0 0.00 0.00 0.00 41 1017.7
20260508185744 69 337 2.0 3.0 0.00 0.00 0.00 41 1017.7
20260508185242 69 285 1.0 3.0 0.00 0.00 0.00 43 1017.7
20260508184738 68 311 1.0 2.0 0.00 0.00 0.00 41 1017.7
20260508184236 67 339 0.0 0.0 0.00 0.00 0.00 43 1017.7
20260508183732 67 19 2.0 3.0 0.00 0.00 0.00 43 1017.9
20260508183228 68 334 0.0 1.0 0.00 0.00 0.00 45 1018.1
20260508182725 68 332 1.0 6.0 0.00 0.00 0.00 43 1018.2
20260508182222 68 337 0.0 5.0 0.00 0.00 0.00 43 1018.1
20260508181718 68 334 0.0 1.0 0.00 0.00 0.00 44 1018.2
20260508181215 68 17 1.0 3.0 0.00 0.00 0.00 42 1018.3
20260508180711 68 308 4.0 7.0 0.00 0.00 0.00 42 1018.1
20260508180208 68 345 3.0 5.0 0.00 0.00 0.00 44 1018.2
20260508175705 68 349 2.0 3.0 0.00 0.00 0.00 45 1018.2
20260508175201 67 326 3.0 5.0 0.00 0.00 0.00 46 1018.4
20260508174659 68 321 3.0 5.0 0.00 0.00 0.00 46 1018.3
20260508174155 68 311 4.0 5.0 0.00 0.00 0.00 46 1018.4
20260508173652 67 296 3.0 7.0 0.00 0.00 0.00 47 1018.3
20260508173149 67 317 1.0 3.0 0.00 0.00 0.00 49 1018.4
20260508172646 66 347 1.0 2.0 0.00 0.00 0.00 49 1018.4
20260508172143 66 339 0.0 7.0 0.00 0.00 0.00 51 1018.5
20260508171639 66 301 3.0 3.0 0.00 0.00 0.00 50 1018.5
20260508171135 66 309 3.0 5.0 0.00 0.00 0.00 48 1018.6
20260508170633 68 323 5.0 7.0 0.00 0.00 0.00 47 1018.6
20260508170130 68 321 2.0 3.0 0.00 0.00 0.00 48 1018.5
20260508165627 66 334 1.0 5.0 0.00 0.00 0.00 51 1018.7
20260508165124 66 336 1.0 1.0 0.00 0.00 0.00 51 1018.7
20260508164620 65 335 1.0 3.0 0.00 0.00 0.00 52 1018.7
20260508164118 64 331 1.0 2.0 0.00 0.00 0.00 54 1018.7
20260508163615 64 311 3.0 6.0 0.00 0.00 0.00 53 1019.1
20260508163112 63 341 3.0 6.0 0.00 0.00 0.00 55 1018.8
20260508162608 63 301 4.0 6.0 0.00 0.00 0.00 55 1018.9
20260508162106 62 346 0.0 3.0 0.00 0.00 0.00 56 1019.1
20260508161602 62 353 1.0 2.0 0.00 0.00 0.00 56 1019.3
20260508161100 60 344 0.0 5.0 0.00 0.00 0.00 58 1019.2
20260508160558 60 314 4.0 5.0 0.00 0.00 0.00 56 1019.2
20260508160054 60 345 0.0 1.0 0.00 0.00 0.00 59 1019.3
20260508155552 59 339 0.0 2.0 0.00 0.00 0.00 60 1019.4
20260508155049 59 308 2.0 2.0 0.00 0.00 0.00 60 1019.4
20260508154546 59 343 0.0 1.0 0.00 0.00 0.00 64 1019.4
20260508154042 58 342 0.0 1.0 0.00 0.00 0.00 65 1019.4
20260508153539 56 334 0.0 2.0 0.00 0.00 0.00 67 1019.5
20260508153036 56 316 1.0 2.0 0.00 0.00 0.00 67 1019.6
20260508152533 55 329 0.0 0.0 0.00 0.00 0.00 72 1019.4
20260508152028 53 338 0.0 1.0 0.00 0.00 0.00 77 1019.7
20260508151525 51 346 0.0 1.0 0.00 0.00 0.00 77 1019.7
20260508151022 50 337 0.0 0.0 0.00 0.00 0.00 80 1019.5
20260508150519 49 338 0.0 0.0 0.00 0.00 0.00 82 1019.8
20260508150015 49 342 0.0 0.0 0.00 0.00 0.00 83 1019.6
20260508145512 48 340 0.0 0.0 0.00 0.00 0.00 84 1019.8
20260508145008 48 340 0.0 0.0 0.00 0.00 0.00 86 1019.9
20260508144506 47 332 0.0 0.0 0.00 0.00 0.00 83 1019.7
20260508144003 45 334 0.0 0.0 0.00 0.00 0.00 90 1019.8
20260508143500 44 333 0.0 0.0 0.00 0.00 0.00 90 1020.1
20260508142956 43 333 0.0 0.0 0.00 0.00 0.00 92 1019.9
20260508142454 42 333 0.0 0.0 0.00 0.00 0.00 98 1019.8
20260508141950 41 333 0.0 0.0 0.00 0.00 0.00 99 1019.9
20260508141447 39 333 0.0 0.0 0.00 0.00 0.00 99 1019.9
20260508140945 39 333 0.0 0.0 0.00 0.00 0.00 99 1019.9
20260508140442 37 333 0.0 0.0 0.00 0.00 0.00 99 1020.1
20260508135937 36 332 0.0 0.0 0.00 0.00 0.00 99 1020.1
20260508135434 36 332 0.0 0.0 0.00 0.00 0.00 99 1020.2
20260508134930 35 330 0.0 0.0 0.00 0.00 0.00 99 1020.2
20260508134427 35 330 0.0 0.0 0.00 0.00 0.00 99 1020.2
20260508133923 35 327 0.0 0.0 0.00 0.00 0.00 99 1020.3
20260508133421 34 338 0.0 0.0 0.00 0.00 0.00 99 1020.3
20260508132918 34 341 0.0 0.0 0.00 0.00 0.00 99 1020.2
20260508132416 34 332 0.0 0.0 0.00 0.00 0.00 99 1020.2
20260508131913 34 334 0.0 0.0 0.00 0.00 0.00 99 1020.5
20260508131408 33 334 0.0 0.0 0.00 0.00 0.00 99 1020.3
20260508130905 33 334 0.0 0.0 0.00 0.00 0.00 99 1020.2
20260508130402 33 334 0.0 0.0 0.00 0.00 0.00 99 1020.2
20260508125857 33 330 0.0 0.0 0.00 0.00 0.00 99 1020.2
20260508125354 33 331 0.0 0.0 0.00 0.00 0.00 99 1020.2
20260508124852 33 354 0.0 0.0 0.00 0.00 0.00 99 1019.8
20260508124349 33 329 0.0 0.0 0.00 0.00 0.00 99 1019.6
20260508123847 32 338 0.0 0.0 0.00 0.00 0.00 99 1019.8
20260508123345 33 337 0.0 0.0 0.00 0.00 0.00 99 1019.8
20260508122841 32 337 0.0 0.0 0.00 0.00 0.00 99 1019.7
20260508122338 33 338 0.0 0.0 0.00 0.00 0.00 99 1019.8
20260508121835 33 337 0.0 0.0 0.00 0.00 0.00 99 1019.8
20260508121334 33 337 0.0 0.0 0.00 0.00 0.00 99 1019.8
20260508120831 33 337 0.0 0.0 0.00 0.00 0.00 99 1019.9
20260508120329 33 338 0.0 0.0 0.00 0.00 0.00 99 1019.9
20260508115826 33 337 0.0 0.0 0.00 0.00 0.00 99 1019.9
20260508115323 33 337 0.0 0.0 0.00 0.00 0.00 99 1019.7
20260508114820 33 337 0.0 0.0 0.00 0.00 0.00 99 1019.8
20260508114317 33 337 0.0 0.0 0.00 0.00 0.00 99 1019.8
20260508113813 33 337 0.0 0.0 0.00 0.00 0.00 99 1019.8
20260508113312 33 337 0.0 0.0 0.00 0.00 0.00 99 1019.8
20260508112808 33 337 0.0 0.0 0.00 0.00 0.00 99 1019.9
20260508112307 33 337 0.0 0.0 0.00 0.00 0.00 99 1019.7
20260508111801 33 337 0.0 0.0 0.00 0.00 0.00 99 1019.7
20260508111259 33 337 0.0 0.0 0.00 0.00 0.00 99 1019.6
20260508110756 34 337 0.0 0.0 0.00 0.00 0.00 99 1019.7
20260508110253 34 337 0.0 0.0 0.00 0.00 0.00 99 1019.6
20260508105747 34 337 0.0 0.0 0.00 0.00 0.00 99 1019.7
20260508105244 34 337 0.0 0.0 0.00 0.00 0.00 99 1019.7
20260508104741 34 337 0.0 0.0 0.00 0.00 0.00 99 1019.6
20260508104238 34 336 0.0 0.0 0.00 0.00 0.00 99 1019.7
20260508103736 34 338 0.0 0.0 0.00 0.00 0.00 99 1019.7
20260508103232 34 338 0.0 0.0 0.00 0.00 0.00 99 1019.6
20260508102729 34 337 0.0 0.0 0.00 0.00 0.00 99 1019.8
20260508102228 34 338 0.0 0.0 0.00 0.00 0.00 99 1019.7
20260508101724 35 338 0.0 0.0 0.00 0.00 0.00 99 1019.7
20260508101222 35 336 0.0 0.0 0.00 0.00 0.00 99 1019.5
20260508100719 35 337 0.0 0.0 0.00 0.00 0.00 99 1019.4
20260508100218 35 337 0.0 0.0 0.00 0.00 0.00 98 1019.6
20260508095713 35 337 0.0 0.0 0.00 0.00 0.00 98 1019.5
20260508095212 35 337 0.0 0.0 0.00 0.00 0.00 98 1019.5
20260508094707 35 337 0.0 0.0 0.00 0.00 0.00 98 1019.5
20260508094205 35 337 0.0 0.0 0.00 0.00 0.00 98 1019.3
20260508093701 35 337 0.0 0.0 0.00 0.00 0.00 98 1019.4
20260508093159 35 336 0.0 0.0 0.00 0.00 0.00 98 1019.5
20260508092656 35 338 0.0 0.0 0.00 0.00 0.00 98 1019.5
20260508092155 35 336 0.0 0.0 0.00 0.00 0.00 98 1019.3
20260508091652 35 336 0.0 0.0 0.00 0.00 0.00 98 1019.4
20260508091149 36 337 0.0 0.0 0.00 0.00 0.00 98 1019.4
20260508090647 36 337 0.0 0.0 0.00 0.00 0.00 98 1019.4
20260508090144 36 335 0.0 0.0 0.00 0.00 0.00 98 1019.4
20260508085639 36 336 0.0 0.0 0.00 0.00 0.00 97 1019.3
20260508085137 36 336 0.0 0.0 0.00 0.00 0.00 97 1019.5
20260508084633 36 336 0.0 0.0 0.00 0.00 0.00 97 1019.6
20260508084131 37 336 0.0 0.0 0.00 0.00 0.00 97 1019.7
20260508083628 37 324 0.0 0.0 0.00 0.00 0.00 97 1019.6
20260508083125 37 329 0.0 0.0 0.00 0.00 0.00 97 1019.6
20260508082620 37 334 0.0 0.0 0.00 0.00 0.00 97 1019.5
20260508082118 37 333 0.0 0.0 0.00 0.00 0.00 97 1019.5
20260508081615 37 334 0.0 0.0 0.00 0.00 0.00 97 1019.5
20260508081112 37 334 0.0 0.0 0.00 0.00 0.00 97 1019.5
20260508080609 37 334 0.0 0.0 0.00 0.00 0.00 96 1019.4
20260508080108 37 333 0.0 0.0 0.00 0.00 0.00 96 1019.5
20260508075603 38 334 0.0 0.0 0.00 0.00 0.00 96 1019.5
20260508075100 38 334 0.0 0.0 0.00 0.00 0.00 96 1019.6
20260508074558 38 331 0.0 0.0 0.00 0.00 0.00 96 1019.6
20260508074054 38 335 0.0 0.0 0.00 0.00 0.00 95 1019.6
20260508073552 39 335 0.0 0.0 0.00 0.00 0.00 95 1019.5
20260508073050 39 335 0.0 0.0 0.00 0.00 0.00 95 1019.5
20260508072545 39 335 0.0 0.0 0.00 0.00 0.00 95 1019.6
20260508072042 39 335 0.0 0.0 0.00 0.00 0.00 94 1019.5
20260508071540 39 334 0.0 0.0 0.00 0.00 0.00 95 1019.4
20260508071038 39 344 0.0 0.0 0.00 0.00 0.00 94 1019.4
20260508070535 40 342 0.0 0.0 0.00 0.00 0.00 94 1019.6
20260508070034 40 343 0.0 0.0 0.00 0.00 0.00 94 1019.5
20260508065531 40 343 0.0 0.0 0.00 0.00 0.00 93 1019.4
20260508065029 40 345 0.0 0.0 0.00 0.00 0.00 93 1019.4
20260508064527 40 342 0.0 0.0 0.00 0.00 0.00 93 1019.4
20260508064024 41 342 0.0 0.0 0.00 0.00 0.00 93 1019.6
20260508063521 41 343 0.0 0.0 0.00 0.00 0.00 92 1019.3
20260508063019 41 343 0.0 0.0 0.00 0.00 0.00 92 1019.3
20260508062516 41 347 0.0 0.0 0.00 0.00 0.00 91 1019.5
20260508062013 41 332 0.0 0.0 0.00 0.00 0.00 91 1019.4
20260508061511 42 333 0.0 0.0 0.00 0.00 0.00 91 1019.4
20260508061007 42 333 0.0 0.0 0.00 0.00 0.00 90 1019.4
20260508060505 42 333 0.0 0.0 0.00 0.00 0.00 90 1019.3
20260508060001 43 331 0.0 0.0 0.00 0.00 0.00 90 1019.3
20260508055457 43 331 0.0 0.0 0.00 0.00 0.00 90 1019.4
20260508054954 43 339 0.0 0.0 0.00 0.00 0.00 90 1019.2
20260508054451 43 339 0.0 0.0 0.00 0.00 0.00 90 1019.1
20260508053947 43 339 0.0 0.0 0.00 0.00 0.00 89 1018.9
20260508053444 44 340 0.0 0.0 0.00 0.00 0.00 88 1019.1
20260508052943 44 341 0.0 0.0 0.00 0.00 0.00 88 1019.1
20260508052440 44 329 0.0 0.0 0.00 0.00 0.00 87 1019.2
20260508051936 44 329 0.0 0.0 0.00 0.00 0.00 86 1018.8
20260508051432 45 329 0.0 0.0 0.00 0.00 0.00 86 1018.9
20260508050928 45 326 0.0 0.0 0.00 0.00 0.00 85 1018.8
20260508050425 46 329 0.0 0.0 0.00 0.00 0.00 83 1018.9
20260508045921 46 350 0.0 0.0 0.00 0.00 0.00 82 1018.9
20260508045419 46 323 0.0 1.0 0.00 0.00 0.00 82 1018.8
20260508044916 46 358 0.0 0.0 0.00 0.00 0.00 81 1018.8
20260508044413 46 330 0.0 0.0 0.00 0.00 0.00 84 1018.5
20260508043908 46 334 0.0 0.0 0.00 0.00 0.00 83 1018.6
20260508043406 47 323 0.0 0.0 0.00 0.00 0.00 83 1018.5
20260508042902 47 332 0.0 0.0 0.00 0.00 0.00 81 1018.5
20260508042400 47 344 0.0 0.0 0.00 0.00 0.00 80 1018.6
20260508041857 47 351 0.0 0.0 0.00 0.00 0.00 80 1018.4
20260508041353 48 338 0.0 0.0 0.00 0.00 0.00 81 1018.5
20260508040849 48 333 0.0 0.0 0.00 0.00 0.00 80 1018.6
20260508040347 48 329 0.0 0.0 0.00 0.00 0.00 80 1018.3
20260508035845 48 330 0.0 0.0 0.00 0.00 0.00 80 1018.3
20260508035342 48 331 0.0 0.0 0.00 0.00 0.00 79 1018.4
20260508034838 48 313 0.0 0.0 0.00 0.00 0.00 78 1018.5
20260508034336 49 348 0.0 0.0 0.00 0.00 0.00 75 1018.4
20260508033832 49 349 0.0 0.0 0.00 0.00 0.00 73 1017.9
20260508033330 50 332 0.0 0.0 0.00 0.00 0.00 73 1018.1
20260508032828 50 341 0.0 0.0 0.00 0.00 0.00 72 1017.9
20260508032325 51 342 0.0 0.0 0.00 0.00 0.00 72 1018.1
20260508031821 51 326 0.0 0.0 0.00 0.00 0.00 71 1017.9
20260508031318 52 335 0.0 0.0 0.00 0.00 0.00 69 1017.7
20260508030814 52 337 0.0 0.0 0.00 0.00 0.00 68 1017.7
20260508030312 53 321 0.0 1.0 0.00 0.00 0.00 68 1017.7
20260508025808 53 328 0.0 0.0 0.00 0.00 0.00 69 1017.4
20260508025306 54 329 0.0 0.0 0.00 0.00 0.00 66 1017.4
20260508024801 54 326 0.0 0.0 0.00 0.00 0.00 67 1017.6
20260508024259 55 336 0.0 0.0 0.00 0.00 0.00 65 1017.4
20260508023755 56 337 0.0 0.0 0.00 0.00 0.00 63 1017.3
20260508023253 57 338 0.0 2.0 0.00 0.00 0.00 60 1017.1
20260508022748 57 307 1.0 2.0 0.00 0.00 0.00 61 1017.2
20260508022245 58 298 2.0 2.0 0.00 0.00 0.00 59 1017.1
20260508021742 60 293 2.0 2.0 0.00 0.00 0.00 56 1016.9
20260508021238 62 323 0.0 2.0 0.00 0.00 0.00 54 1017.2
20260508020735 65 319 1.0 2.0 0.00 0.00 0.00 46 1017.1
20260508020232 66 352 4.0 5.0 0.00 0.00 0.00 38 1017.2
20260508015729 66 333 2.0 5.0 0.00 0.00 0.00 38 1016.9
20260508015227 67 17 2.0 2.0 0.00 0.00 0.00 37 1016.9
20260508014723 67 307 3.0 5.0 0.00 0.00 0.00 36 1016.9
20260508014220 68 285 2.0 8.0 0.00 0.00 0.00 34 1016.8
20260508013716 69 28 3.0 6.0 0.00 0.00 0.00 34 1017.1
20260508013212 69 10 7.0 8.0 0.00 0.00 0.00 33 1016.7
20260508012710 69 357 1.0 6.0 0.00 0.00 0.00 33 1017.1
20260508012206 68 358 2.0 2.0 0.00 0.00 0.00 33 1016.9
20260508011705 69 14 2.0 6.0 0.00 0.00 0.00 33 1016.7
20260508011202 68 17 3.0 7.0 0.00 0.00 0.00 33 1016.8
20260508010659 69 5 5.0 7.0 0.00 0.00 0.00 32 1016.8
20260508010157 68 7 3.0 6.0 0.00 0.00 0.00 33 1017.1
20260508005654 68 355 1.0 3.0 0.00 0.00 0.00 35 1016.9
20260508005150 70 344 2.0 5.0 0.00 0.00 0.00 33 1016.9
20260508004646 71 335 2.0 5.0 0.00 0.00 0.00 32 1017.1
20260508004142 71 325 1.0 3.0 0.00 0.00 0.00 33 1016.7
20260508003639 71 348 2.0 2.0 0.00 0.00 0.00 34 1016.8
20260508003137 72 312 7.0 9.0 0.00 0.00 0.00 32 1016.8
20260508002633 71 355 0.0 1.0 0.00 0.00 0.00 32 1016.7
20260508002131 71 314 0.0 5.0 0.00 0.00 0.00 34 1016.7
20260508001626 70 305 1.0 1.0 0.00 0.00 0.00 34 1016.7
20260508001122 69 332 0.0 2.0 0.00 0.00 0.00 34 1016.8
20260508000618 69 315 5.0 6.0 0.00 0.00 0.00 34 1016.8
20260508000116 69 326 0.0 2.0 0.00 0.00 0.00 34 1017.1
20260507235613 70 281 3.0 6.0 0.00 0.00 0.00 35 1016.9
20260507235110 71 29 2.0 6.0 0.00 0.00 0.00 33 1016.9
20260507234606 69 335 3.0 8.0 0.00 0.00 0.00 34 1016.8
20260507234103 70 319 6.0 9.0 0.00 0.00 0.00 34 1016.8
20260507233559 72 341 0.0 5.0 0.00 0.00 0.00 30 1016.6
20260507233059 72 307 7.0 10.0 0.00 0.00 0.00 32 1016.7
20260507232554 72 346 6.0 8.0 0.00 0.00 0.00 33 1016.6
20260507232052 71 325 1.0 2.0 0.00 0.00 0.00 31 1016.7
20260507231548 71 240 6.0 9.0 0.00 0.00 0.00 31 1016.7
20260507231045 71 350 1.0 3.0 0.00 0.00 0.00 32 1016.6
20260507230541 72 313 3.0 9.0 0.00 0.00 0.00 30 1016.8
20260507230038 71 0 1.0 2.0 0.00 0.00 0.00 32 1017.1
20260507225533 72 350 2.0 6.0 0.00 0.00 0.00 31 1016.7
20260507225030 71 344 1.0 8.0 0.00 0.00 0.00 31 1016.8
20260507224526 71 314 3.0 9.0 0.00 0.00 0.00 31 1016.7
20260507224022 69 28 2.0 5.0 0.00 0.00 0.00 36 1016.9
20260507223519 72 271 6.0 8.0 0.00 0.00 0.00 31 1016.9
20260507223016 71 227 4.0 9.0 0.00 0.00 0.00 32 1016.8
20260507222513 72 338 1.0 5.0 0.00 0.00 0.00 31 1016.8
20260507222009 69 358 2.0 5.0 0.00 0.00 0.00 33 1017.1
20260507221506 71 305 3.0 9.0 0.00 0.00 0.00 32 1017.2
20260507221002 72 336 3.0 7.0 0.00 0.00 0.00 32 1017.2
20260507220500 71 19 2.0 8.0 0.00 0.00 0.00 34 1017.1
20260507215956 71 307 3.0 9.0 0.00 0.00 0.00 32 1017.1
20260507215453 73 333 1.0 1.0 0.00 0.00 0.00 32 1017.2
20260507214951 73 215 3.0 6.0 0.00 0.00 0.00 34 1017.1
20260507214448 71 299 2.0 3.0 0.00 0.00 0.00 34 1017.3
20260507213943 70 331 2.0 7.0 0.00 0.00 0.00 34 1017.2
20260507213440 71 305 3.0 5.0 0.00 0.00 0.00 32 1017.3